星链-5465 (STARLINK-5465 )

导读 | 星芒AI

STARLINK-5465 是 SpaceX Starlink 项目中的一颗低轨通信卫星,属于该星座的第五组发射批次。该卫星于2021年发射,运行在约550公里高度的近地轨道,旨在为全球用户提供高速互联网服务。Starlink 卫星采用先进推进系统和激光通信技术,具备自动避障功能,以确保运行安全。STARLINK-5465 与其他 Starlink 卫星协同工作,提升网络覆盖与连接稳定性,支持偏远地区通信需求。

基本信息
目录编号:
54775
目录名称:
STARLINK-5465
国际标识:
2022-175T
轨道中心:
EARTH
卫星名称:
星链-5465
卫星全名:
星链-5465 (STARLINK-5465 )
卫星状态:
在轨 (已飞行1100 天)
发射日期:
2022-12-17 UTC
国别 :
美国 (US)
星等 :
--
轨道信息
数据来源 国际轨道数据
星历时间: 2025-12-21T11:27:46+0800
10小时前
查看轨道信息
半长轴: 6917.893km
偏心率: 0.0001358
轨道倾角: 53.219°
近地点辐角 98.374°
升交点赤经 36.561°
平近点角 261.741°
近地点: 538.816km
远地点: 540.696km
周期: 95.438分钟
每日圈数: 15.08836
详细信息
固有亮度:
5
最大亮度:
2.5
卫星平台:
Starlink v1.5
覆盖范围:
全球
运营商:
太空探索技术公司
运营商所在国:
美国
制造商(研发单位):
太空探索技术公司
制造商所在国:
美国
使用方式:
暂无
卫星简介
星链(Starlink)计划是由太空探索技术公司(SpaceX)提出的一个巨型低轨卫星互联网星座项目,计划在2019年至2024年间在太空搭建由约1.2万颗卫星组成的“星链”网络,其中1584颗将部署在地球上空550千米处的近地轨道,并从2020年开始工作。该卫星仍在工作。
2D轨道图
3D轨道图
轨道高度分析图
轨道倾角分析图
轨道综合分析图
查看轨道综合分析图